Regional Weather Roundup
Issued by NWS

Home | Current Version | Previous Version | Text Only | Print | Product List | Glossary Off
Versions: 1 2 3 4 5 6 7 8 9 10 11 12 13 14 15 16 17 18 19 20 21 22 23 24 25 26 27 28 29 30 31 32 33 34 35 36 37 38 39 40 41 42 43 44 45 46 47 48 49 50

000
ASUS43 KIND 211709
RWRIN

WEATHER ROUNDUP FOR INDIANA
NATIONAL WEATHER SERVICE INDIANAPOLIS IN
100 PM EDT THU SEP 21 2017

NOTE: "FAIR" INDICATES FEW OR NO CLOUDS BELOW 12,000 FEET WITH NO
SIGNIFICANT WEATHER AND/OR OBSTRUCTIONS TO VISIBILITY.

* - STATION DOES NOT REPORT WEATHER SUCH AS PRECIPITATION OR FOG.

+ - STATION NOT QUALITY CONTROLLED BY THE NATIONAL WEATHER SERVICE.
    USE DATA WITH CAUTION...ESPECIALLY DEWPOINT AND RELATIVE
    HUMIDITY OBSERVATIONS.

INZ001>003-010>013-019-020-211800-
NORTHWEST INDIANA

CITY           SKY/WX    TMP DP  RH WIND       PRES   REMARKS
GARY /AIRPORT/ PTSUNNY   88  66  48 VRB5      30.04F
KNOX *+        SUNNY     86  72  62 SW7       30.05S
LA PORTE +     SUNNY     84  72  67 SW5       30.07S
MICHIGAN CITY+ MOSUNNY   86  72  62 S7        30.05
MONTICELLO +   SUNNY     85  73  66 S7        30.05F
RENSSELAER +   SUNNY     86  68  54 S5        30.06S
VALPARAISO     MOSUNNY   87  73  62 SE5       30.05F

$$

LMZ046-743>745-211800-
SOUTHERN LAKE MICHIGAN

STATION/POSITION TIME  TEMP    WIND        PRES    WAVE
                       AIR SEA DIR/SP/G            HT
                 (UTC) (F)     (DEG/KT/KT) (MB)    (FT)
BURNS HARBOR     1640   85     190/  7/  8 1017.3S
MICHIGAN CITY    1640   83     170/  6/  8   N/A
5NW MICH CITY    1700   79 70   CALM  /  2   N/A     0

$$

INZ004-005-014>016-021>024-211800-
NORTH CENTRAL INDIANA

CITY           SKY/WX    TMP DP  RH WIND       PRES   REMARKS
ELKHART        SUNNY     84  73  70 S5        30.05F
GOSHEN         SUNNY     86  71  60 S8        30.05F
LOGANSPORT +   SUNNY     86  72  62 S7        30.07F
PERU/GRISSOM   SUNNY     86  72  63 SW6       30.06F
SOUTH BEND     SUNNY     84  73  69 S8        30.06S
WARSAW +       SUNNY     84  72  65 S5        30.06F

$$

INZ006>009-017-018-025>027-211800-
NORTHEAST INDIANA

CITY           SKY/WX    TMP DP  RH WIND       PRES   REMARKS
AUBURN +       MOSUNNY   88  70  55 SW5       30.09S
FORT WAYNE     MOSUNNY   86  71  60 SW8       30.08F
HUNTINGTON +   MOSUNNY   85  71  61 SW5       30.07F
KENDALLVILLE + SUNNY     86  73  65 SW8       30.09S

$$

INZ028-029-035-036-043>045-051>053-211800-
WEST CENTRAL INDIANA

CITY           SKY/WX    TMP DP  RH WIND       PRES   REMARKS
GREENCASTLE +  MOSUNNY   88  68  51 S9        30.09S
LAFAYETTE      SUNNY     87  74  64 S6        30.05F HX  95
TERRE HAUTE    SUNNY     90  69  50 VRB5G17   30.07F

$$

INZ030>032-037>040-046>048-054>057-064-065-211800-
CENTRAL INDIANA

CITY           SKY/WX    TMP DP  RH WIND       PRES   REMARKS
CP ATTERBURY + MOSUNNY   88  70  55 S7        30.10F
COLUMBUS       SUNNY     86  68  54 CALM      30.09F
FISHERS *+     MOSUNNY   88  75  66 S9        30.08F HX  97
FRANKFORT +    CLOUDY    89  73  58 SW7       30.09S HX  97
GREENWOOD *+   MOSUNNY   91  74  57 W6        30.09F HX  99
INDIANAPOLIS   MOSUNNY   88  70  55 VRB7      30.08F
-EAGLE CREEK   MOSUNNY   88  69  53 SE7       30.07F
KOKOMO +       MOSUNNY   88  73  61 SW6       30.08F HX  95
MT COMFORT *+    N/A    N/A N/A N/A MISG        N/A
SHELBYVILLE    SUNNY     87  69  54 SW8       30.08F
ZIONSVILLE +   SUNNY     85  71  63 SW9       30.08F

$$

INZ033-034-041-042-049-050-058-059-211800-
EAST CENTRAL INDIANA

CITY           SKY/WX    TMP DP  RH WIND       PRES   REMARKS
MUNCIE         SUNNY     89  70  53 W7        30.09F
RICHMOND +     MOSUNNY   84  70  61 W6        30.12F

$$

INZ060-061-067>069-081>083-085>088-211800-
SOUTHWEST INDIANA

CITY           SKY/WX    TMP DP  RH WIND       PRES   REMARKS
EVANSVILLE     MOSUNNY   86  70  58 CALM      30.08F
HUNTINGBURG +    N/A    N/A N/A N/A MISG        N/A
WASHINGTON +   MOSUNNY   89  66  46 CALM      30.07F

$$

INZ062-063-066-070>080-084-089>092-211800-
SOUTH CENTRAL AND SOUTHEAST INDIANA

CITY           SKY/WX    TMP DP  RH WIND       PRES   REMARKS
BEDFORD +      MOSUNNY   86  70  58 CALM      30.09F
BLOOMINGTON    CLOUDY    89  68  49 CALM      30.09F
MADISON *+     SUNNY     88  70  55 CALM      30.13S
NORTH VERNON + MOSUNNY   86  70  58 CALM      30.11F
SEYMOUR +      MOSUNNY   86  70  58 CALM      30.09F

$$




USA.gov is the U.S. government's official web portal to all federal, state and local government web resources and services.